This is the latest recevied weather packets stored in our database for station/object KF6GPE. If no packets are shown the sender has not sent any weather packets the latest 10 day(s).
| Time | Temp. | Humidity | Pressure | Rain* | Wind** | Luminosity | Snow |
|---|---|---|---|---|---|---|---|
| 1777951803 | 12.22° C | 80% | 987.6 hPa | 0 mm | - | 1000 W/m² | - |
| 1777951204 | 12.22° C | 79% | 987.7 hPa | 0 mm | - | 1000 W/m² | - |
| 1777950603 | 12.22° C | 79% | 987.8 hPa | 0 mm | - | 1000 W/m² | - |
| 1777950003 | 12.78° C | 77% | 987.8 hPa | 0 mm | - | 1000 W/m² | - |
| 1777949403 | 12.78° C | 76% | 987.6 hPa | 0 mm | - | 1000 W/m² | - |
| 1777948803 | 12.78° C | 76% | 987.7 hPa | 0 mm | - | 1000 W/m² | - |
| 1777948202 | 13.33° C | 77% | 987.6 hPa | 0 mm | - | 1000 W/m² | - |
| 1777947602 | 13.33° C | 77% | 987.6 hPa | 0 mm | - | 1000 W/m² | - |
| 1777947003 | 13.89° C | 76% | 987.4 hPa | 0 mm | - | 1000 W/m² | - |
| 1777946403 | 13.89° C | 75% | 987.5 hPa | 0 mm | - | 1001 W/m² | - |
| 1777945803 | 14.44° C | 75% | 987.5 hPa | 0 mm | - | 1001 W/m² | - |
| 1777945206 | 14.44° C | 72% | 987.5 hPa | 0 mm | - | 1002 W/m² | - |
| 1777944603 | 15° C | 72% | 987.6 hPa | 0 mm | - | 1004 W/m² | - |
| 1777944003 | 15° C | 71% | 987.6 hPa | 0 mm | - | 1005 W/m² | - |
| 1777943403 | 15° C | 71% | 987.7 hPa | 0 mm | - | 1006 W/m² | - |
| 1777942804 | 15° C | 72% | 987.7 hPa | 0 mm | - | 1006 W/m² | - |
| 1777942203 | 15° C | 72% | 987.9 hPa | 0 mm | - | 1005 W/m² | - |
| 1777941602 | 15° C | 72% | 987.8 hPa | 0 mm | - | 1005 W/m² | - |
| 1777941003 | 15° C | 71% | 987.8 hPa | 0 mm | - | 1007 W/m² | - |
| 1777940403 | 15° C | 75% | 987.8 hPa | 0 mm | - | 1006 W/m² | - |
| 1777939805 | 15° C | 70% | 987.7 hPa | 0 mm | - | 1006 W/m² | - |
| 1777939203 | 15° C | 73% | 987.8 hPa | 0 mm | - | 1004 W/m² | - |
| 1777938602 | 15° C | 71% | 987.8 hPa | 0 mm | - | 1003 W/m² | - |
| 1777938004 | 14.44° C | 73% | 987.8 hPa | 0 mm | - | 1004 W/m² | - |
| 1777937403 | 14.44° C | 74% | 987.9 hPa | 0 mm | - | 1006 W/m² | - |
* Rain latest hour (hover to see other rain measurements)
** Current wind speed in m/s (hover to see current wind gust speed)